星链-1092 (STARLINK-1092 )

导读 | 星芒AI

STARLINK-1092 是 SpaceX Starlink 项目中的一颗低轨通信卫星,属于第十一组 Starlink 卫星群。该卫星于 2021 年 11 月 18 日由猎鹰九号火箭从美国卡纳维拉尔角发射升空,旨在为全球提供高速互联网服务。它运行在约 550 公里的近地轨道上,采用先进的相控阵天线和激光通信技术,以提高网络连接速度和稳定性。STARLINK-1092 是 SpaceX 打造全球宽带网络计划的重要组成部分。

基本信息
目录编号:
44969
目录名称:
STARLINK-1092
国际标识:
2020-001BH
轨道中心:
EARTH
卫星名称:
星链-1092
卫星全名:
星链-1092 (STARLINK-1092 )
卫星状态:
已陨落 最后检测时间 2025-07-19
发射日期:
2020-01-07 UTC
国别 :
美国 (US)
星等 :
--
轨道信息
数据来源 国际轨道数据
星历时间: 2025-07-19T21:27:42+0800
轨道信息已过期101天
半长轴: 6523.972km
偏心率: 0.0005178
轨道倾角: 53.018°
近地点辐角 294.886°
升交点赤经 187.661°
平近点角 169.175°
近地点: 142.458km
远地点: 149.216km
周期: 87.403分钟
每日圈数: 16.475352
详细信息
固有亮度:
5
最大亮度:
2.5
卫星平台:
Starlink V1.0
覆盖范围:
全球
运营商:
太空探索技术公司
运营商所在国:
美国
制造商(研发单位):
太空探索技术公司
制造商所在国:
美国
使用方式:
暂无
卫星简介
星链(Starlink)计划是由太空探索技术公司(SpaceX)提出的一个巨型低轨卫星互联网星座项目,计划在2019年至2024年间在太空搭建由约1.2万颗卫星组成的“星链”网络,其中1584颗将部署在地球上空550千米处的近地轨道,并从2020年开始工作。该卫星仍在工作。